Regional Weather Roundup
Issued by NWS Green Bay, WI

Home | Current Version | Previous Version | Text Only | Print | Product List | Glossary On
Versions: 1 2 3 4 5 6 7 8 9 10 11 12 13 14 15 16 17 18 19 20 21 22 23 24 25 26 27 28 29 30 31 32 33 34 35 36 37 38 39 40 41 42 43 44 45 46 47 48 49 50
000
ASUS43 KGRB 210610
RWRGRB

NORTH-CENTRAL AND NORTHEAST WISCONSIN REGIONAL WEATHER ROUNDUP
NATIONAL WEATHER SERVICE GREEN BAY WI
100 AM CDT THU AUG 21 2014

WIZ005-009-010>012-018-019-210700-
NORTH CENTRAL WISCONSIN

CITY           SKY/WX    TMP DP  RH WIND       PRES   REMARKS
IRONWOOD         N/A     54  54 100 CALM      29.94F
MANITOWISH WTR CLOUDY    63  60  91 CALM      29.98S
ARBOR VITAE    CLOUDY    63  59  87 CALM      29.98S
EAGLE RIVER    CLOUDY    62  61  96 CALM      29.98S
LAND O LAKES   CLOUDY    61  61  99 CALM      29.99F
RHINELANDER    MOCLDY    61  59  93 E5        29.98F
PHILLIPS       MOCLDY    55  55 100 CALM      29.97S FOG
ANTIGO           N/A     58  58  99 CALM      29.98S FOG
TOMAHAWK       MOCLDY    52  51  97 CALM      29.98R FOG
MERRILL        FOG       56  56 100 CALM      29.97S VSB 1/2
$$

WIZ013-073-210700-
NORTHEAST WISCONSIN

CITY           SKY/WX    TMP DP  RH WIND       PRES   REMARKS
IRON MOUNTAIN  CLOUDY    64  61  90 CALM      29.97R
MARINETTE      CLOUDY    66  63  88 CALM      29.95S
OCONTO         CLOUDY    63  63 100 NE3       29.95S
$$

WIZ017-030-035>037-045-210700-
CENTRAL WISCONSIN

CITY           SKY/WX    TMP DP  RH WIND       PRES   REMARKS
MEDFORD          N/A     60  59  97 E3        29.96S
WAUSAU           N/A     60  59  96 CALM      29.95S
MOSINEE        CLOUDY    61  61 100 CALM      29.98R
MARSHFIELD       N/A     63  60  90 E5        29.95S
WISC RAPIDS    MOCLDY    64  62  93 E5        29.97R
STEVENS POINT  MOCLDY    59  58  96 CALM      29.97S
WAUPACA        MOCLDY    64  63  95 CALM      29.97R
SHAWANO          N/A     61  59  93 CALM      29.96S
CLINTONVILLE     N/A     59  57  94 CALM      29.96S
$$

WIZ038-039-048-051-210700-
FOX VALLEY

CITY           SKY/WX    TMP DP  RH WIND       PRES   REMARKS
NWS GREEN BAY    N/A     60  60 100 S5        29.97R FOG
APPLETON         N/A     64  63  94 CALM      29.97S
OSHKOSH        MOCLDY    64  63  96 S5        29.96S
FOND DU LAC    MOCLDY    65  61  87 SE7       29.97S
$$

WIZ022-050-052-210700-
EAST CENTRAL WISCONSIN

CITY           SKY/WX    TMP DP  RH WIND       PRES   REMARKS
STURGEON BAY   CLOUDY    64  61  88 S3        29.97S
MANITOWOC      FOG       63  62  97 CALM      29.98R VSB 1/4
SHEBOYGAN      FOG       61  60  97 CALM      29.98S VSB 1
$$

LMZ563-521-522-541>543-210700-
LAKESHORE

STATION/POSITION TIME  TEMP    WIND        PRES    VSBY  WAVE
                       AIR SEA DIR/SP/G                  HT/PER
                 (UTC) (F)     (DEG/KT/KT) (MB)    (MI)  (FT/S)
SHEBOYGAN LKSHOR 0600   66 65  180/  3/  4 1015.1R
KEWAUNEE LKSHORE 0600   64      CALM  /  2 1013.8F
NORTHPORT PIER   0600   64     200/  3/  5 1014.6R
N MID LAKE BUOY  0600   62 62  300/  2/  4 1014.1R         0
S GREEN BAY BUOY 0600   67     VRB  6      1015.4R
SISTER BAY LKSHO 0600   64     160/  6/  8   N/A
CHAMBERS ISLAND  0600   65     170/  1/  4 1014.9R
MENOMINEE LKSHOR 0600   67     160/  4/  6 1015.1R
$$


USA.gov is the U.S. government's official web portal to all federal, state and local government web resources and services.